Time,TemperatureF,DewpointF,PressureIn,WindDirection,WindDirectionDegrees,WindSpeedMPH,WindSpeedGustMPH,Humidity,HourlyPrecipIn,Conditions,Clouds,dailyrainin,SolarRadiationWatts/m^2,SoftwareType,DateUTC
2013-05-12 00:00:00,42.2,30.9,30.06,North,355,0.0,7.0,64,0.00,,---,0.01,0.00,VWS V14.01,2013-05-12 05:00:00,
2013-05-12 00:01:00,42.2,30.9,30.06,North,360,7.0,7.0,64,0.00,,---,0.00,0.00,VWS V14.01,2013-05-12 05:01:00,
2013-05-12 00:06:00,42.2,30.5,30.07,WNW,301,3.0,9.0,63,0.00,,---,0.00,0.00,VWS V14.01,2013-05-12 05:06:00,
2013-05-12 00:11:00,42.1,30.8,30.07,WSW,257,2.0,9.0,64,0.00,,---,0.00,0.00,VWS V14.01,2013-05-12 05:11:00,
2013-05-12 00:16:00,42.1,30.8,30.07,NW,311,2.0,9.0,64,0.00,,---,0.00,0.00,VWS V14.01,2013-05-12 05:16:00,
2013-05-12 00:21:00,42.2,30.9,30.07,North,5,1.0,9.0,64,0.00,,---,0.00,0.00,VWS V14.01,2013-05-12 05:21:00,
2013-05-12 00:26:00,42.2,30.9,30.07,NNE,13,2.0,9.0,64,0.00,,---,0.00,0.00,VWS V14.01,2013-05-12 05:26:00,
2013-05-12 00:31:00,42.2,30.9,30.07,NW,317,4.0,9.0,64,0.00,,---,0.00,0.00,VWS V14.01,2013-05-12 05:31:00,
2013-05-12 00:36:00,42.2,30.9,30.07,West,275,7.0,10.0,64,0.00,,---,0.00,0.00,VWS V14.01,2013-05-12 05:36:00,
2013-05-12 00:41:00,42.2,30.5,30.07,WNW,298,2.0,10.0,63,0.00,,---,0.00,0.00,VWS V14.01,2013-05-12 05:41:00,
2013-05-12 00:46:00,42.1,29.6,30.07,NNW,346,5.0,10.0,61,0.00,,---,0.00,0.00,VWS V14.01,2013-05-12 05:46:00,
2013-05-12 00:51:00,42.2,29.3,30.07,West,262,10.0,10.0,60,0.00,,---,0.00,0.00,VWS V14.01,2013-05-12 05:51:00,
2013-05-12 00:56:00,42.3,28.6,30.07,ENE,64,5.0,10.0,58,0.00,,---,0.00,0.00,VWS V14.01,2013-05-12 05:56:00,
2013-05-12 01:00:00,42.3,29.0,30.07,NW,314,4.0,10.0,59,0.00,,---,0.00,0.00,VWS V14.01,2013-05-12 06:00:00,
2013-05-12 01:01:00,42.3,28.6,30.07,WNW,296,8.0,16.0,58,0.00,,---,0.00,0.00,VWS V14.01,2013-05-12 06:01:00,
2013-05-12 01:06:00,42.3,28.6,30.07,NW,323,3.0,16.0,58,0.00,,---,0.00,0.00,VWS V14.01,2013-05-12 06:06:00,
2013-05-12 01:11:00,42.3,27.7,30.07,West,272,5.0,16.0,56,0.00,,---,0.00,0.00,VWS V14.01,2013-05-12 06:11:00,
2013-05-12 01:16:00,42.3,28.2,30.07,NNE,32,4.0,16.0,57,0.00,,---,0.00,0.00,VWS V14.01,2013-05-12 06:16:00,
2013-05-12 01:21:00,42.2,28.1,30.07,NW,314,4.0,16.0,57,0.00,,---,0.00,0.00,VWS V14.01,2013-05-12 06:21:00,
2013-05-12 01:26:00,42.1,27.1,30.07,North,5,5.0,16.0,55,0.00,,---,0.00,0.00,VWS V14.01,2013-05-12 06:26:00,
2013-05-12 01:31:00,41.9,27.4,30.07,NE,34,5.0,16.0,56,0.00,,---,0.00,0.00,VWS V14.01,2013-05-12 06:31:00,
2013-05-12 01:36:00,41.8,27.3,30.07,NW,312,1.0,16.0,56,0.00,,---,0.00,0.00,VWS V14.01,2013-05-12 06:36:00,
2013-05-12 01:41:00,41.5,27.0,30.07,NNE,30,5.0,16.0,56,0.00,,---,0.00,0.00,VWS V14.01,2013-05-12 06:41:00,
2013-05-12 01:46:00,41.4,26.9,30.07,WNW,282,6.0,16.0,56,0.00,,---,0.00,0.00,VWS V14.01,2013-05-12 06:46:00,
2013-05-12 01:51:00,41.4,26.9,30.08,North,355,3.0,16.0,56,0.00,,---,0.00,0.00,VWS V14.01,2013-05-12 06:51:00,
2013-05-12 01:56:00,41.2,26.3,30.07,NNE,22,5.0,16.0,55,0.00,,---,0.00,0.00,VWS V14.01,2013-05-12 06:56:00,
2013-05-12 02:00:00,41.1,26.2,30.08,North,9,3.0,16.0,55,0.00,,---,0.00,0.00,VWS V14.01,2013-05-12 07:00:00,
2013-05-12 02:01:00,41.0,26.5,30.08,NW,325,4.0,13.0,56,0.00,,---,0.00,0.00,VWS V14.01,2013-05-12 07:01:00,
2013-05-12 02:06:00,40.7,26.2,30.08,NNW,332,9.0,13.0,56,0.00,,---,0.00,0.00,VWS V14.01,2013-05-12 07:06:00,
2013-05-12 02:11:00,40.5,26.0,30.08,NW,315,7.0,13.0,56,0.00,,---,0.00,0.00,VWS V14.01,2013-05-12 07:11:00,
2013-05-12 02:16:00,40.5,26.0,30.08,NW,323,2.0,13.0,56,0.00,,---,0.00,0.00,VWS V14.01,2013-05-12 07:16:00,
2013-05-12 02:21:00,40.3,25.9,30.08,NNW,340,3.0,13.0,56,0.00,,---,0.00,0.00,VWS V14.01,2013-05-12 07:21:00,
2013-05-12 02:26:00,40.1,25.7,30.08,NNW,344,5.0,13.0,56,0.00,,---,0.00,0.00,VWS V14.01,2013-05-12 07:26:00,
2013-05-12 02:31:00,40.1,25.7,30.08,NNW,327,8.0,14.0,56,0.00,,---,0.00,0.00,VWS V14.01,2013-05-12 07:31:00,
2013-05-12 02:36:00,40.1,25.7,30.08,West,279,5.0,14.0,56,0.00,,---,0.00,0.00,VWS V14.01,2013-05-12 07:36:00,
2013-05-12 02:41:00,39.9,25.9,30.08,NNW,345,3.0,14.0,57,0.00,,---,0.00,0.00,VWS V14.01,2013-05-12 07:41:00,
2013-05-12 02:46:00,39.7,26.1,30.08,North,5,2.0,14.0,58,0.00,,---,0.00,0.00,VWS V14.01,2013-05-12 07:46:00,
2013-05-12 02:51:00,39.5,26.4,30.08,North,5,0.0,14.0,59,0.00,,---,0.00,0.00,VWS V14.01,2013-05-12 07:51:00,
2013-05-12 02:56:00,39.2,26.5,30.08,NNE,23,0.0,14.0,60,0.00,,---,0.00,0.00,VWS V14.01,2013-05-12 07:56:00,
2013-05-12 03:00:00,39.0,26.3,30.08,WNW,288,2.0,14.0,60,0.00,,---,0.00,0.00,VWS V14.01,2013-05-12 08:00:00,
2013-05-12 03:01:00,39.0,26.3,30.08,North,5,3.0,8.0,60,0.00,,---,0.00,0.00,VWS V14.01,2013-05-12 08:01:00,
2013-05-12 03:06:00,39.1,26.4,30.08,NNW,334,2.0,8.0,60,0.00,,---,0.00,0.00,VWS V14.01,2013-05-12 08:06:00,
2013-05-12 03:11:00,39.0,26.3,30.08,WNW,287,0.0,8.0,60,0.00,,---,0.00,0.00,VWS V14.01,2013-05-12 08:11:00,
2013-05-12 03:16:00,38.7,26.4,30.08,WNW,296,3.0,8.0,61,0.00,,---,0.00,0.00,VWS V14.01,2013-05-12 08:16:00,
2013-05-12 03:21:00,38.7,26.8,30.08,NNW,336,1.0,8.0,62,0.00,,---,0.00,0.00,VWS V14.01,2013-05-12 08:21:00,
2013-05-12 03:26:00,38.5,26.6,30.08,NNW,336,0.0,8.0,62,0.00,,---,0.00,0.00,VWS V14.01,2013-05-12 08:26:00,
2013-05-12 03:31:00,38.3,26.8,30.09,NNW,329,0.0,8.0,63,0.00,,---,0.00,0.00,VWS V14.01,2013-05-12 08:31:00,
2013-05-12 03:36:00,38.0,26.5,30.09,WNW,302,3.0,8.0,63,0.00,,---,0.00,0.00,VWS V14.01,2013-05-12 08:36:00,
2013-05-12 03:41:00,37.8,26.7,30.09,West,277,4.0,8.0,64,0.00,,---,0.00,0.00,VWS V14.01,2013-05-12 08:41:00,
2013-05-12 03:46:00,37.8,26.7,30.09,North,355,0.0,8.0,64,0.00,,---,0.00,0.00,VWS V14.01,2013-05-12 08:46:00,
2013-05-12 03:51:00,37.8,26.7,30.09,North,355,0.0,8.0,64,0.00,,---,0.00,0.00,VWS V14.01,2013-05-12 08:51:00,
2013-05-12 03:56:00,37.6,26.9,30.09,North,355,1.0,8.0,65,0.00,,---,0.00,0.00,VWS V14.01,2013-05-12 08:56:00,
2013-05-12 04:00:00,37.5,26.8,30.09,North,355,0.0,8.0,65,0.00,,---,0.00,0.00,VWS V14.01,2013-05-12 09:00:00,
2013-05-12 04:01:00,37.4,26.7,30.09,North,355,1.0,1.0,65,0.00,,---,0.00,0.00,VWS V14.01,2013-05-12 09:01:00,
2013-05-12 04:06:00,37.1,26.8,30.09,North,355,0.0,2.0,66,0.00,,---,0.00,0.00,VWS V14.01,2013-05-12 09:06:00,
2013-05-12 04:11:00,36.6,27.4,30.10,North,355,0.0,2.0,69,0.00,,---,0.00,0.00,VWS V14.01,2013-05-12 09:11:00,
2013-05-12 04:16:00,36.5,27.3,30.09,NNW,336,2.0,5.0,69,0.00,,---,0.00,0.00,VWS V14.01,2013-05-12 09:16:00,
2013-05-12 04:21:00,36.4,27.2,30.09,WSW,244,0.0,5.0,69,0.00,,---,0.00,0.00,VWS V14.01,2013-05-12 09:21:00,
2013-05-12 04:26:00,36.5,27.3,30.09,WNW,295,0.0,5.0,69,0.00,,---,0.00,0.00,VWS V14.01,2013-05-12 09:26:00,
2013-05-12 04:31:00,36.6,27.0,30.09,West,275,1.0,5.0,68,0.00,,---,0.00,0.00,VWS V14.01,2013-05-12 09:31:00,
2013-05-12 04:36:00,36.7,27.1,30.10,WNW,288,2.0,5.0,68,0.00,,---,0.00,0.00,VWS V14.01,2013-05-12 09:36:00,
2013-05-12 04:41:00,36.7,27.1,30.10,WNW,302,0.0,5.0,68,0.00,,---,0.00,0.00,VWS V14.01,2013-05-12 09:41:00,
2013-05-12 04:46:00,36.5,27.3,30.10,WNW,297,0.0,5.0,69,0.00,,---,0.00,0.00,VWS V14.01,2013-05-12 09:46:00,
2013-05-12 04:51:00,36.4,27.2,30.10,NW,313,0.0,5.0,69,0.00,,---,0.00,0.00,VWS V14.01,2013-05-12 09:51:00,
2013-05-12 04:56:00,36.0,27.2,30.10,NW,310,0.0,5.0,70,0.00,,---,0.00,0.00,VWS V14.01,2013-05-12 09:56:00,
2013-05-12 05:00:00,36.0,27.2,30.10,NW,323,1.0,5.0,70,0.00,,---,0.00,0.00,VWS V14.01,2013-05-12 10:00:00,
2013-05-12 05:01:00,36.0,27.2,30.10,North,350,2.0,3.0,70,0.00,,---,0.00,0.00,VWS V14.01,2013-05-12 10:01:00,
2013-05-12 05:06:00,36.1,27.3,30.10,WNW,286,1.0,3.0,70,0.00,,---,0.00,0.00,VWS V14.01,2013-05-12 10:06:00,
2013-05-12 05:11:00,36.1,27.3,30.10,SW,235,1.0,3.0,70,0.00,,---,0.00,0.00,VWS V14.01,2013-05-12 10:11:00,
2013-05-12 05:16:00,35.9,27.4,30.10,NW,315,0.0,3.0,71,0.00,,---,0.00,0.00,VWS V14.01,2013-05-12 10:16:00,
2013-05-12 05:21:00,35.8,27.3,30.10,West,259,1.0,5.0,71,0.00,,---,0.00,0.00,VWS V14.01,2013-05-12 10:21:00,
2013-05-12 05:26:00,35.6,27.1,30.10,NNE,32,1.0,5.0,71,0.00,,---,0.00,0.00,VWS V14.01,2013-05-12 10:26:00,
2013-05-12 05:30:00,35.7,27.2,30.10,NNW,348,1.0,5.0,71,0.00,,---,0.00,0.00,VWS V14.01,2013-05-12 10:30:00,
2013-05-12 05:36:00,35.8,27.3,30.10,NW,314,2.0,8.0,71,0.00,,---,0.00,0.00,VWS V14.01,2013-05-12 10:36:00,
2013-05-12 05:41:00,35.8,27.0,30.10,NW,312,3.0,8.0,70,0.00,,---,0.00,5.00,VWS V14.01,2013-05-12 10:41:00,
2013-05-12 05:46:00,35.8,27.3,30.10,NNW,347,0.0,8.0,71,0.00,,---,0.00,7.00,VWS V14.01,2013-05-12 10:46:00,
2013-05-12 05:50:00,35.6,27.1,30.11,NNW,342,2.0,8.0,71,0.00,,---,0.00,9.00,VWS V14.01,2013-05-12 10:50:00,
2013-05-12 05:55:00,35.6,27.1,30.11,NW,324,4.0,8.0,71,0.00,,---,0.00,11.00,VWS V14.01,2013-05-12 10:55:00,
2013-05-12 06:00:00,35.9,27.1,30.11,NNW,338,1.0,6.0,70,0.00,,---,0.00,14.00,VWS V14.01,2013-05-12 11:00:00,
2013-05-12 06:06:00,36.0,27.2,30.11,NNW,344,2.0,6.0,70,0.00,,---,0.00,16.00,VWS V14.01,2013-05-12 11:06:00,
2013-05-12 06:11:00,36.0,27.2,30.11,NW,306,2.0,6.0,70,0.00,,---,0.00,18.00,VWS V14.01,2013-05-12 11:11:00,
2013-05-12 06:15:00,36.0,27.5,30.11,NW,306,0.0,6.0,71,0.00,,---,0.00,23.00,VWS V14.01,2013-05-12 11:15:00,
2013-05-12 06:20:00,35.6,27.5,30.11,West,271,1.0,6.0,72,0.00,,---,0.00,28.00,VWS V14.01,2013-05-12 11:20:00,
2013-05-12 06:25:00,35.3,27.5,30.11,West,273,1.0,6.0,73,0.00,,---,0.00,37.00,VWS V14.01,2013-05-12 11:25:00,
2013-05-12 06:30:00,35.5,27.7,30.12,NW,319,0.0,6.0,73,0.00,,---,0.00,56.00,VWS V14.01,2013-05-12 11:30:00,
2013-05-12 06:35:00,35.8,28.0,30.12,NNW,337,0.0,6.0,73,0.00,,---,0.00,74.00,VWS V14.01,2013-05-12 11:35:00,
2013-05-12 06:40:00,36.3,27.5,30.12,West,262,3.0,6.0,70,0.00,,---,0.00,100.00,VWS V14.01,2013-05-12 11:40:00,
2013-05-12 06:45:00,36.6,27.8,30.12,North,349,3.0,6.0,70,0.00,,---,0.00,116.00,VWS V14.01,2013-05-12 11:45:00,
2013-05-12 06:50:00,37.1,27.5,30.12,NW,318,2.0,6.0,68,0.00,,---,0.00,135.00,VWS V14.01,2013-05-12 11:50:00,
2013-05-12 06:55:00,37.4,27.8,30.12,NNE,23,2.0,6.0,68,0.00,,---,0.00,155.00,VWS V14.01,2013-05-12 11:55:00,
2013-05-12 07:00:00,37.7,28.1,30.12,NNE,13,1.0,4.0,68,0.00,,---,0.00,174.00,VWS V14.01,2013-05-12 12:00:00,
2013-05-12 07:05:00,37.8,27.8,30.12,NNW,331,0.0,5.0,67,0.00,,---,0.00,155.00,VWS V14.01,2013-05-12 12:05:00,
2013-05-12 07:10:00,38.0,27.7,30.12,West,267,3.0,10.0,66,0.00,,---,0.00,116.00,VWS V14.01,2013-05-12 12:10:00,
2013-05-12 07:15:00,38.2,28.2,30.13,South,171,1.0,10.0,67,0.00,,---,0.00,142.00,VWS V14.01,2013-05-12 12:15:00,
2013-05-12 07:20:00,38.5,28.1,30.13,NNW,347,4.0,10.0,66,0.00,,---,0.00,114.00,VWS V14.01,2013-05-12 12:20:00,
2013-05-12 07:25:00,38.7,28.0,30.13,NW,306,8.0,10.0,65,0.00,,---,0.00,174.00,VWS V14.01,2013-05-12 12:25:00,
2013-05-12 07:30:00,38.8,28.1,30.13,NNW,333,0.0,10.0,65,0.00,,---,0.00,253.00,VWS V14.01,2013-05-12 12:30:00,
2013-05-12 07:35:00,39.0,28.2,30.13,NNW,348,4.0,10.0,65,0.00,,---,0.00,294.00,VWS V14.01,2013-05-12 12:35:00,
2013-05-12 07:40:00,39.1,27.6,30.13,WSW,245,5.0,11.0,63,0.00,,---,0.00,316.00,VWS V14.01,2013-05-12 12:40:00,
2013-05-12 07:45:00,39.1,27.6,30.13,NNE,32,4.0,11.0,63,0.00,,---,0.00,248.00,VWS V14.01,2013-05-12 12:45:00,
2013-05-12 07:50:00,39.2,27.7,30.13,North,355,4.0,11.0,63,0.00,,---,0.00,408.00,VWS V14.01,2013-05-12 12:50:00,
2013-05-12 07:55:00,39.6,28.1,30.13,North,360,6.0,11.0,63,0.00,,---,0.00,387.00,VWS V14.01,2013-05-12 12:55:00,
2013-05-12 08:00:00,40.2,27.8,30.13,NW,317,1.0,3.0,61,0.00,,---,0.00,197.00,VWS V14.01,2013-05-12 13:00:00,
2013-05-12 08:05:00,40.1,26.9,30.13,North,355,4.0,10.0,59,0.00,,---,0.00,188.00,VWS V14.01,2013-05-12 13:05:00,
2013-05-12 08:10:00,39.7,27.4,30.13,SE,142,3.0,10.0,61,0.00,,---,0.00,153.00,VWS V14.01,2013-05-12 13:10:00,
2013-05-12 08:15:00,39.5,26.8,30.13,East,90,2.0,10.0,60,0.00,,---,0.00,144.00,VWS V14.01,2013-05-12 13:15:00,
2013-05-12 08:20:00,39.4,27.1,30.13,NNE,16,2.0,10.0,61,0.00,,---,0.00,165.00,VWS V14.01,2013-05-12 13:20:00,
2013-05-12 08:25:00,40.1,26.9,30.13,NW,315,3.0,10.0,59,0.00,,---,0.00,545.00,VWS V14.01,2013-05-12 13:25:00,
2013-05-12 08:30:00,40.4,27.2,30.13,North,360,8.0,10.0,59,0.00,,---,0.00,619.00,VWS V14.01,2013-05-12 13:30:00,
2013-05-12 08:35:00,41.2,27.1,30.13,NNW,340,15.0,15.0,57,0.00,,---,0.00,468.00,VWS V14.01,2013-05-12 13:35:00,
2013-05-12 08:40:00,40.7,26.7,30.14,North,11,6.0,15.0,57,0.00,,---,0.00,206.00,VWS V14.01,2013-05-12 13:40:00,
2013-05-12 08:45:00,40.8,27.2,30.14,NNE,31,5.0,15.0,58,0.00,,---,0.00,570.00,VWS V14.01,2013-05-12 13:45:00,
2013-05-12 08:50:00,41.1,27.0,30.14,NE,41,4.0,15.0,57,0.00,,---,0.00,564.00,VWS V14.01,2013-05-12 13:50:00,
2013-05-12 08:55:00,41.8,26.8,30.14,NNE,13,5.0,15.0,55,0.00,,---,0.00,608.00,VWS V14.01,2013-05-12 13:55:00,
2013-05-12 09:00:00,41.3,25.9,30.14,NNE,30,3.0,9.0,54,0.00,,---,0.00,178.00,VWS V14.01,2013-05-12 14:00:00,
2013-05-12 09:05:00,40.8,25.9,30.14,NNW,328,4.0,9.0,55,0.00,,---,0.00,645.00,VWS V14.01,2013-05-12 14:05:00,
2013-05-12 09:10:00,41.2,26.3,30.14,NNE,20,4.0,9.0,55,0.00,,---,0.00,645.00,VWS V14.01,2013-05-12 14:10:00,
2013-05-12 09:15:00,41.5,26.5,30.14,NNE,26,4.0,9.0,55,0.00,,---,0.00,628.00,VWS V14.01,2013-05-12 14:15:00,
2013-05-12 09:20:00,42.1,26.2,30.14,NW,313,3.0,10.0,53,0.00,,---,0.00,645.00,VWS V14.01,2013-05-12 14:20:00,
2013-05-12 09:25:00,42.5,25.7,30.14,NW,304,7.0,10.0,51,0.00,,---,0.00,663.00,VWS V14.01,2013-05-12 14:25:00,
2013-05-12 09:30:00,42.6,25.8,30.14,WNW,286,3.0,10.0,51,0.00,,---,0.00,670.00,VWS V14.01,2013-05-12 14:30:00,
2013-05-12 09:35:00,43.1,26.2,30.14,NE,46,2.0,11.0,51,0.00,,---,0.00,687.00,VWS V14.01,2013-05-12 14:35:00,
2013-05-12 09:40:00,43.2,26.8,30.14,NNW,342,2.0,11.0,52,0.00,,---,0.00,703.00,VWS V14.01,2013-05-12 14:40:00,
2013-05-12 09:45:00,43.2,25.8,30.14,North,355,2.0,11.0,50,0.00,,---,0.00,715.00,VWS V14.01,2013-05-12 14:45:00,
2013-05-12 09:50:00,43.1,27.1,30.14,NNE,19,1.0,11.0,53,0.00,,---,0.00,729.00,VWS V14.01,2013-05-12 14:50:00,
2013-05-12 09:55:00,43.5,26.6,30.14,NNE,29,2.0,11.0,51,0.00,,---,0.00,754.00,VWS V14.01,2013-05-12 14:55:00,
2013-05-12 10:00:00,44.2,28.6,30.14,NW,317,6.0,8.0,54,0.00,,---,0.00,805.00,VWS V14.01,2013-05-12 15:00:00,
2013-05-12 10:05:00,44.7,29.1,30.14,WNW,289,2.0,10.0,54,0.00,,---,0.00,803.00,VWS V14.01,2013-05-12 15:05:00,
2013-05-12 10:10:00,44.2,27.2,30.14,NW,324,1.0,10.0,51,0.00,,---,0.00,364.00,VWS V14.01,2013-05-12 15:10:00,
2013-05-12 10:15:00,44.1,26.7,30.14,WNW,294,5.0,10.0,50,0.00,,---,0.00,830.00,VWS V14.01,2013-05-12 15:15:00,
2013-05-12 10:20:00,43.7,26.3,30.14,NNE,15,3.0,10.0,50,0.00,,---,0.00,837.00,VWS V14.01,2013-05-12 15:20:00,
2013-05-12 10:25:00,44.1,26.7,30.14,WNW,294,2.0,10.0,50,0.00,,---,0.00,805.00,VWS V14.01,2013-05-12 15:25:00,
2013-05-12 10:30:00,44.9,27.4,30.14,WNW,292,4.0,13.0,50,0.00,,---,0.00,882.00,VWS V14.01,2013-05-12 15:30:00,
2013-05-12 10:35:00,45.0,27.5,30.14,SW,227,5.0,13.0,50,0.00,,---,0.00,838.00,VWS V14.01,2013-05-12 15:35:00,
2013-05-12 10:40:00,45.4,26.4,30.14,North,355,7.0,13.0,47,0.00,,---,0.00,858.00,VWS V14.01,2013-05-12 15:40:00,
2013-05-12 10:45:00,46.3,29.6,30.14,North,5,5.0,13.0,52,0.00,,---,0.00,858.00,VWS V14.01,2013-05-12 15:45:00,
2013-05-12 10:50:00,46.3,28.7,30.14,SW,226,1.0,13.0,50,0.00,,---,0.00,872.00,VWS V14.01,2013-05-12 15:50:00,
2013-05-12 10:55:00,46.5,29.4,30.14,SW,215,4.0,13.0,51,0.00,,---,0.00,904.00,VWS V14.01,2013-05-12 15:55:00,
2013-05-12 11:00:00,47.2,28.5,30.14,WNW,294,6.0,7.0,48,0.00,,---,0.00,904.00,VWS V14.01,2013-05-12 16:00:00,
2013-05-12 11:05:00,46.8,27.1,30.14,NW,313,2.0,11.0,46,0.00,,---,0.00,898.00,VWS V14.01,2013-05-12 16:05:00,
2013-05-12 11:10:00,46.4,26.8,30.14,WNW,302,2.0,11.0,46,0.00,,---,0.00,898.00,VWS V14.01,2013-05-12 16:10:00,
2013-05-12 11:15:00,47.0,29.3,30.14,West,271,1.0,11.0,50,0.00,,---,0.00,909.00,VWS V14.01,2013-05-12 16:15:00,
2013-05-12 11:20:00,47.2,28.0,30.14,NNW,346,7.0,11.0,47,0.00,,---,0.00,919.00,VWS V14.01,2013-05-12 16:20:00,
2013-05-12 11:25:00,47.6,27.9,30.13,North,360,4.0,11.0,46,0.00,,---,0.00,937.00,VWS V14.01,2013-05-12 16:25:00,
2013-05-12 11:30:00,47.2,26.4,30.13,North,355,2.0,11.0,44,0.00,,---,0.00,951.00,VWS V14.01,2013-05-12 16:30:00,
2013-05-12 11:35:00,48.2,28.4,30.13,NW,305,2.0,11.0,46,0.00,,---,0.00,947.00,VWS V14.01,2013-05-12 16:35:00,
2013-05-12 11:40:00,48.5,27.0,30.13,West,269,2.0,11.0,43,0.00,,---,0.00,947.00,VWS V14.01,2013-05-12 16:40:00,
2013-05-12 11:45:00,48.6,29.3,30.13,West,262,3.0,11.0,47,0.00,,---,0.00,958.00,VWS V14.01,2013-05-12 16:45:00,
2013-05-12 11:50:00,49.1,26.4,30.13,NNE,12,13.0,13.0,41,0.00,,---,0.00,962.00,VWS V14.01,2013-05-12 16:50:00,
2013-05-12 11:55:00,48.3,25.7,30.13,NE,40,3.0,13.0,41,0.00,,---,0.00,970.00,VWS V14.01,2013-05-12 16:55:00,
2013-05-12 12:00:00,48.4,24.6,30.13,NNW,343,1.0,10.0,39,0.00,,---,0.00,977.00,VWS V14.01,2013-05-12 17:00:00,
2013-05-12 12:05:00,49.2,26.5,30.13,North,5,3.0,10.0,41,0.00,,---,0.00,1016.00,VWS V14.01,2013-05-12 17:05:00,
2013-05-12 12:10:00,49.7,27.0,30.13,North,360,2.0,10.0,41,0.00,,---,0.00,979.00,VWS V14.01,2013-05-12 17:10:00,
2013-05-12 12:15:00,50.1,28.5,30.12,NNW,344,5.0,10.0,43,0.00,,---,0.00,979.00,VWS V14.01,2013-05-12 17:15:00,
2013-05-12 12:20:00,49.6,28.0,30.12,SSW,207,3.0,10.0,43,0.00,,---,0.00,986.00,VWS V14.01,2013-05-12 17:20:00,
2013-05-12 12:25:00,49.0,27.5,30.12,WNW,303,5.0,10.0,43,0.00,,---,0.00,995.00,VWS V14.01,2013-05-12 17:25:00,
2013-05-12 12:30:00,51.1,28.8,30.12,WSW,240,4.0,10.0,42,0.00,,---,0.00,1002.00,VWS V14.01,2013-05-12 17:30:00,
2013-05-12 12:35:00,51.0,27.5,30.12,NE,35,10.0,11.0,40,0.00,,---,0.00,993.00,VWS V14.01,2013-05-12 17:35:00,
2013-05-12 12:40:00,51.2,28.3,30.12,NNE,21,3.0,12.0,41,0.00,,---,0.00,991.00,VWS V14.01,2013-05-12 17:40:00,
2013-05-12 12:45:00,50.6,27.2,30.12,SW,219,4.0,12.0,40,0.00,,---,0.00,995.00,VWS V14.01,2013-05-12 17:45:00,
2013-05-12 12:50:00,51.3,23.9,30.12,NW,315,6.0,12.0,34,0.00,,---,0.00,993.00,VWS V14.01,2013-05-12 17:50:00,
2013-05-12 12:55:00,50.8,25.5,30.12,NW,326,3.0,12.0,37,0.00,,---,0.00,995.00,VWS V14.01,2013-05-12 17:55:00,
2013-05-12 13:00:00,50.9,28.6,30.11,West,277,3.0,7.0,42,0.00,,---,0.00,1004.00,VWS V14.01,2013-05-12 18:00:00,
2013-05-12 13:05:00,51.8,26.4,30.12,WSW,243,5.0,15.0,37,0.00,,---,0.00,998.00,VWS V14.01,2013-05-12 18:05:00,
2013-05-12 13:10:00,51.0,25.0,30.11,NNW,346,4.0,15.0,36,0.00,,---,0.00,1005.00,VWS V14.01,2013-05-12 18:10:00,
2013-05-12 13:15:00,52.3,27.5,30.11,SW,236,5.0,15.0,38,0.00,,---,0.00,1002.00,VWS V14.01,2013-05-12 18:15:00,
2013-05-12 13:20:00,51.8,27.0,30.11,West,263,3.0,15.0,38,0.00,,---,0.00,995.00,VWS V14.01,2013-05-12 18:20:00,
2013-05-12 13:25:00,52.0,25.9,30.11,WSW,250,4.0,15.0,36,0.00,,---,0.00,991.00,VWS V14.01,2013-05-12 18:25:00,
2013-05-12 13:30:00,51.9,30.1,30.11,SW,218,5.0,15.0,43,0.00,,---,0.00,997.00,VWS V14.01,2013-05-12 18:30:00,
2013-05-12 13:35:00,52.0,25.9,30.11,NW,312,4.0,15.0,36,0.00,,---,0.00,986.00,VWS V14.01,2013-05-12 18:35:00,
2013-05-12 13:40:00,51.3,23.2,30.11,WNW,295,2.0,15.0,33,0.00,,---,0.00,983.00,VWS V14.01,2013-05-12 18:40:00,
2013-05-12 13:45:00,52.6,24.3,30.10,NNE,32,10.0,15.0,33,0.00,,---,0.00,979.00,VWS V14.01,2013-05-12 18:45:00,
2013-05-12 13:50:00,52.4,25.6,30.10,WSW,242,3.0,15.0,35,0.00,,---,0.00,976.00,VWS V14.01,2013-05-12 18:50:00,
2013-05-12 13:55:00,52.7,25.8,30.10,NNE,30,7.0,15.0,35,0.00,,---,0.00,1039.00,VWS V14.01,2013-05-12 18:55:00,
2013-05-12 14:00:00,51.9,24.4,30.10,NW,326,2.0,6.0,34,0.00,,---,0.00,979.00,VWS V14.01,2013-05-12 19:00:00,
2013-05-12 14:05:00,53.1,25.5,30.10,SW,224,4.0,10.0,34,0.00,,---,0.00,965.00,VWS V14.01,2013-05-12 19:05:00,
2013-05-12 14:10:00,52.9,25.3,30.10,NW,317,3.0,11.0,34,0.00,,---,0.00,951.00,VWS V14.01,2013-05-12 19:10:00,
2013-05-12 14:15:00,53.4,30.3,30.10,SW,234,3.0,11.0,41,0.00,,---,0.00,947.00,VWS V14.01,2013-05-12 19:15:00,
2013-05-12 14:20:00,53.5,26.5,30.10,NW,304,8.0,13.0,35,0.00,,---,0.00,940.00,VWS V14.01,2013-05-12 19:20:00,
2013-05-12 14:25:00,52.9,26.0,30.10,WSW,243,3.0,13.0,35,0.00,,---,0.00,935.00,VWS V14.01,2013-05-12 19:25:00,
2013-05-12 14:30:00,53.1,26.9,30.09,SSW,210,5.0,13.0,36,0.00,,---,0.00,940.00,VWS V14.01,2013-05-12 19:30:00,
2013-05-12 14:35:00,54.2,29.2,30.09,NNW,333,4.0,13.0,38,0.00,,---,0.00,932.00,VWS V14.01,2013-05-12 19:35:00,
2013-05-12 14:40:00,53.9,24.0,30.10,ESE,120,2.0,13.0,31,0.00,,---,0.00,923.00,VWS V14.01,2013-05-12 19:40:00,
2013-05-12 14:45:00,54.6,29.5,30.09,West,263,5.0,13.0,38,0.00,,---,0.00,914.00,VWS V14.01,2013-05-12 19:45:00,
2013-05-12 14:50:00,54.4,28.0,30.09,WNW,298,4.0,13.0,36,0.00,,---,0.00,904.00,VWS V14.01,2013-05-12 19:50:00,
2013-05-12 14:55:00,55.1,28.0,30.09,NW,306,7.0,13.0,35,0.00,,---,0.00,896.00,VWS V14.01,2013-05-12 19:55:00,
2013-05-12 15:00:00,54.2,25.0,30.09,North,5,4.0,10.0,32,0.00,,---,0.00,898.00,VWS V14.01,2013-05-12 20:00:00,
2013-05-12 15:05:00,54.8,29.0,30.09,WSW,246,6.0,11.0,37,0.00,,---,0.00,881.00,VWS V14.01,2013-05-12 20:05:00,
2013-05-12 15:10:00,53.4,25.0,30.09,NNE,17,3.0,11.0,33,0.00,,---,0.00,868.00,VWS V14.01,2013-05-12 20:10:00,
2013-05-12 15:15:00,55.3,28.1,30.09,NNW,342,1.0,11.0,35,0.00,,---,0.00,858.00,VWS V14.01,2013-05-12 20:15:00,
2013-05-12 15:20:00,54.9,24.9,30.09,North,355,5.0,11.0,31,0.00,,---,0.00,849.00,VWS V14.01,2013-05-12 20:20:00,
2013-05-12 15:25:00,55.1,25.0,30.09,SSW,192,3.0,11.0,31,0.00,,---,0.00,833.00,VWS V14.01,2013-05-12 20:25:00,
2013-05-12 15:30:00,54.7,28.3,30.08,SW,235,4.0,11.0,36,0.00,,---,0.00,831.00,VWS V14.01,2013-05-12 20:30:00,
2013-05-12 15:35:00,55.0,27.2,30.08,North,355,1.0,11.0,34,0.00,,---,0.00,824.00,VWS V14.01,2013-05-12 20:35:00,
2013-05-12 15:40:00,56.3,27.6,30.08,West,267,4.0,11.0,33,0.00,,---,0.00,810.00,VWS V14.01,2013-05-12 20:40:00,
2013-05-12 15:45:00,55.1,28.6,30.08,WSW,253,5.0,11.0,36,0.00,,---,0.00,803.00,VWS V14.01,2013-05-12 20:45:00,
2013-05-12 15:50:00,55.3,26.7,30.08,West,260,4.0,11.0,33,0.00,,---,0.00,789.00,VWS V14.01,2013-05-12 20:50:00,
2013-05-12 15:55:00,55.3,28.1,30.07,WSW,240,6.0,11.0,35,0.00,,---,0.00,773.00,VWS V14.01,2013-05-12 20:55:00,
2013-05-12 16:00:00,55.9,27.2,30.08,WNW,294,6.0,6.0,33,0.00,,---,0.00,768.00,VWS V14.01,2013-05-12 21:00:00,
2013-05-12 16:05:00,55.7,24.0,30.08,NW,307,5.0,9.0,29,0.00,,---,0.00,763.00,VWS V14.01,2013-05-12 21:05:00,
2013-05-12 16:10:00,55.3,23.6,30.08,NW,306,6.0,9.0,29,0.00,,---,0.00,731.00,VWS V14.01,2013-05-12 21:10:00,
2013-05-12 16:15:00,54.8,23.2,30.07,West,262,4.0,9.0,29,0.00,,---,0.00,715.00,VWS V14.01,2013-05-12 21:15:00,
2013-05-12 16:20:00,55.7,25.5,30.07,West,270,3.0,9.0,31,0.00,,---,0.00,701.00,VWS V14.01,2013-05-12 21:20:00,
2013-05-12 16:25:00,55.9,24.1,30.07,West,270,5.0,11.0,29,0.00,,---,0.00,687.00,VWS V14.01,2013-05-12 21:25:00,
2013-05-12 16:30:00,55.2,23.5,30.07,NNE,15,0.0,11.0,29,0.00,,---,0.00,673.00,VWS V14.01,2013-05-12 21:30:00,
2013-05-12 16:35:00,55.2,23.5,30.07,WSW,244,6.0,11.0,29,0.00,,---,0.00,656.00,VWS V14.01,2013-05-12 21:35:00,
2013-05-12 16:40:00,55.4,26.0,30.07,West,275,4.0,12.0,32,0.00,,---,0.00,642.00,VWS V14.01,2013-05-12 21:40:00,
2013-05-12 16:45:00,55.1,24.2,30.07,West,277,7.0,12.0,30,0.00,,---,0.00,629.00,VWS V14.01,2013-05-12 21:45:00,
2013-05-12 16:50:00,55.5,23.8,30.07,NW,323,3.0,12.0,29,0.00,,---,0.00,613.00,VWS V14.01,2013-05-12 21:50:00,
2013-05-12 16:55:00,56.0,25.8,30.07,SW,221,3.0,12.0,31,0.00,,---,0.00,603.00,VWS V14.01,2013-05-12 21:55:00,
2013-05-12 17:00:00,56.5,27.0,30.07,West,271,3.0,4.0,32,0.00,,---,0.00,584.00,VWS V14.01,2013-05-12 22:00:00,
2013-05-12 17:05:00,55.2,25.9,30.07,West,261,2.0,10.0,32,0.00,,---,0.00,563.00,VWS V14.01,2013-05-12 22:05:00,
2013-05-12 17:10:00,55.5,30.3,30.07,SW,225,2.0,10.0,38,0.00,,---,0.00,548.00,VWS V14.01,2013-05-12 22:10:00,
2013-05-12 17:15:00,55.6,25.5,30.07,NW,305,1.0,10.0,31,0.00,,---,0.00,533.00,VWS V14.01,2013-05-12 22:15:00,
2013-05-12 17:20:00,55.5,24.6,30.07,WSW,242,4.0,11.0,30,0.00,,---,0.00,522.00,VWS V14.01,2013-05-12 22:20:00,
2013-05-12 17:25:00,55.4,22.9,30.07,West,274,3.0,11.0,28,0.00,,---,0.00,496.00,VWS V14.01,2013-05-12 22:25:00,
2013-05-12 17:30:00,55.5,27.6,30.07,West,269,4.0,11.0,34,0.00,,---,0.00,480.00,VWS V14.01,2013-05-12 22:30:00,
2013-05-12 17:35:00,55.9,24.1,30.07,NW,321,13.0,13.0,29,0.00,,---,0.00,461.00,VWS V14.01,2013-05-12 22:35:00,
2013-05-12 17:40:00,55.1,24.2,30.07,WNW,290,3.0,13.0,30,0.00,,---,0.00,443.00,VWS V14.01,2013-05-12 22:40:00,
2013-05-12 17:45:00,54.9,24.9,30.07,West,281,1.0,13.0,31,0.00,,---,0.00,429.00,VWS V14.01,2013-05-12 22:45:00,
2013-05-12 17:50:00,55.2,24.3,30.07,West,279,5.0,13.0,30,0.00,,---,0.00,401.00,VWS V14.01,2013-05-12 22:50:00,
2013-05-12 17:55:00,54.8,23.2,30.07,WNW,298,8.0,13.0,29,0.00,,---,0.00,392.00,VWS V14.01,2013-05-12 22:55:00,
2013-05-12 18:00:00,54.6,23.0,30.07,NNW,341,7.0,7.0,29,0.00,,---,0.00,374.00,VWS V14.01,2013-05-12 23:00:00,
2013-05-12 18:05:00,54.4,23.6,30.07,North,11,1.0,7.0,30,0.00,,---,0.00,353.00,VWS V14.01,2013-05-12 23:05:00,
2013-05-12 18:10:00,54.9,24.1,30.06,North,350,4.0,7.0,30,0.00,,---,0.00,336.00,VWS V14.01,2013-05-12 23:10:00,
2013-05-12 18:15:00,54.3,22.7,30.07,South,180,3.0,13.0,29,0.00,,---,0.00,320.00,VWS V14.01,2013-05-12 23:15:00,
2013-05-12 18:20:00,54.2,22.6,30.06,WNW,292,2.0,13.0,29,0.00,,---,0.00,304.00,VWS V14.01,2013-05-12 23:20:00,
2013-05-12 18:25:00,54.0,25.6,30.06,WNW,300,0.0,13.0,33,0.00,,---,0.00,260.00,VWS V14.01,2013-05-12 23:25:00,
2013-05-12 18:30:00,54.1,23.4,30.07,NNW,327,2.0,13.0,30,0.00,,---,0.00,207.00,VWS V14.01,2013-05-12 23:30:00,
2013-05-12 18:35:00,53.7,23.0,30.07,North,360,2.0,13.0,30,0.00,,---,0.00,144.00,VWS V14.01,2013-05-12 23:35:00,
2013-05-12 18:40:00,53.7,22.2,30.06,WNW,296,3.0,13.0,29,0.00,,---,0.00,142.00,VWS V14.01,2013-05-12 23:40:00,
2013-05-12 18:45:00,53.3,22.7,30.06,West,275,2.0,13.0,30,0.00,,---,0.00,104.00,VWS V14.01,2013-05-12 23:45:00,
2013-05-12 18:50:00,53.3,25.0,30.06,SW,234,3.0,13.0,33,0.00,,---,0.00,77.00,VWS V14.01,2013-05-12 23:50:00,
2013-05-12 18:55:00,53.1,24.8,30.06,South,190,4.0,13.0,33,0.00,,---,0.00,60.00,VWS V14.01,2013-05-12 23:55:00,
2013-05-12 19:00:00,52.9,26.0,30.06,WSW,238,4.0,4.0,35,0.00,,---,0.00,47.00,VWS V14.01,2013-05-13 00:00:00,
2013-05-12 19:05:00,52.7,25.8,30.06,West,261,0.0,5.0,35,0.00,,---,0.00,46.00,VWS V14.01,2013-05-13 00:05:00,
2013-05-12 19:10:00,52.7,22.2,30.06,NNW,337,4.0,9.0,30,0.00,,---,0.00,42.00,VWS V14.01,2013-05-13 00:10:00,
2013-05-12 19:15:00,52.6,22.1,30.06,NW,313,5.0,9.0,30,0.00,,---,0.00,42.00,VWS V14.01,2013-05-13 00:15:00,
2013-05-12 19:20:00,52.6,22.1,30.06,NNW,340,4.0,10.0,30,0.00,,---,0.00,49.00,VWS V14.01,2013-05-13 00:20:00,
2013-05-12 19:25:00,52.5,22.8,30.06,NNE,22,1.0,10.0,31,0.00,,---,0.00,54.00,VWS V14.01,2013-05-13 00:25:00,
2013-05-12 19:30:00,52.4,21.9,30.06,NW,319,3.0,10.0,30,0.00,,---,0.00,47.00,VWS V14.01,2013-05-13 00:30:00,
2013-05-12 19:35:00,52.2,22.5,30.07,North,360,3.0,10.0,31,0.00,,---,0.00,28.00,VWS V14.01,2013-05-13 00:35:00,
2013-05-12 19:40:00,51.9,22.2,30.07,NW,314,3.0,10.0,31,0.00,,---,0.00,26.00,VWS V14.01,2013-05-13 00:40:00,
2013-05-12 19:45:00,51.7,22.1,30.07,NNE,19,3.0,10.0,31,0.00,,---,0.00,23.00,VWS V14.01,2013-05-13 00:45:00,
2013-05-12 19:50:00,51.6,22.7,30.07,NNW,345,2.0,10.0,32,0.00,,---,0.00,19.00,VWS V14.01,2013-05-13 00:50:00,
2013-05-12 19:55:00,51.4,22.5,30.07,WNW,293,2.0,10.0,32,0.00,,---,0.00,16.00,VWS V14.01,2013-05-13 00:55:00,
2013-05-12 20:00:00,51.2,23.1,30.07,WNW,288,0.0,2.0,33,0.00,,---,0.00,12.00,VWS V14.01,2013-05-13 01:00:00,
2013-05-12 20:05:00,50.7,23.4,30.07,WNW,288,0.0,2.0,34,0.00,,---,0.00,11.00,VWS V14.01,2013-05-13 01:05:00,
2013-05-12 20:10:00,50.5,23.2,30.07,West,279,1.0,5.0,34,0.00,,---,0.00,7.00,VWS V14.01,2013-05-13 01:10:00,
2013-05-12 20:15:00,50.3,23.7,30.07,WNW,286,0.0,5.0,35,0.00,,---,0.00,5.00,VWS V14.01,2013-05-13 01:15:00,
2013-05-12 20:20:00,50.0,23.4,30.07,WNW,284,0.0,5.0,35,0.00,,---,0.00,0.00,VWS V14.01,2013-05-13 01:20:00,
2013-05-12 20:25:00,49.6,24.4,30.07,WNW,284,0.0,5.0,37,0.00,,---,0.00,0.00,VWS V14.01,2013-05-13 01:25:00,
2013-05-12 20:30:00,49.0,25.8,30.08,WNW,284,0.0,5.0,40,0.00,,---,0.00,0.00,VWS V14.01,2013-05-13 01:30:00,
2013-05-12 20:35:00,48.2,27.3,30.08,WNW,284,0.0,5.0,44,0.00,,---,0.00,0.00,VWS V14.01,2013-05-13 01:35:00,
2013-05-12 20:40:00,47.3,26.5,30.08,WNW,284,0.0,5.0,44,0.00,,---,0.00,0.00,VWS V14.01,2013-05-13 01:40:00,
2013-05-12 20:45:00,46.9,26.1,30.08,WNW,284,0.0,5.0,44,0.00,,---,0.00,0.00,VWS V14.01,2013-05-13 01:45:00,
2013-05-12 20:50:00,46.5,26.9,30.08,WNW,284,0.0,5.0,46,0.00,,---,0.00,0.00,VWS V14.01,2013-05-13 01:50:00,
2013-05-12 20:55:00,46.0,27.4,30.08,WNW,284,0.0,5.0,48,0.00,,---,0.00,0.00,VWS V14.01,2013-05-13 01:55:00,
2013-05-12 21:00:00,45.7,27.6,30.08,WNW,284,0.0,1.0,49,0.00,,---,0.00,0.00,VWS V14.01,2013-05-13 02:00:00,
2013-05-12 21:05:00,45.1,28.5,30.08,WNW,284,0.0,1.0,52,0.00,,---,0.00,0.00,VWS V14.01,2013-05-13 02:05:00,
2013-05-12 21:10:00,44.9,27.4,30.09,WNW,284,0.0,1.0,50,0.00,,---,0.00,0.00,VWS V14.01,2013-05-13 02:10:00,
2013-05-12 21:15:00,44.6,28.5,30.09,WNW,284,0.0,1.0,53,0.00,,---,0.00,0.00,VWS V14.01,2013-05-13 02:15:00,
2013-05-12 21:20:00,44.5,28.9,30.09,WNW,284,0.0,1.0,54,0.00,,---,0.00,0.00,VWS V14.01,2013-05-13 02:20:00,
2013-05-12 21:25:00,44.7,29.5,30.09,WNW,284,0.0,1.0,55,0.00,,---,0.00,0.00,VWS V14.01,2013-05-13 02:25:00,
2013-05-12 21:30:00,44.8,29.6,30.09,WNW,284,0.0,1.0,55,0.00,,---,0.00,0.00,VWS V14.01,2013-05-13 02:30:00,
2013-05-12 21:35:00,44.2,28.6,30.09,WNW,284,0.0,1.0,54,0.00,,---,0.00,0.00,VWS V14.01,2013-05-13 02:35:00,
2013-05-12 21:40:00,43.2,29.0,30.09,WNW,284,0.0,1.0,57,0.00,,---,0.00,0.00,VWS V14.01,2013-05-13 02:40:00,
2013-05-12 21:45:00,42.6,30.1,30.09,WNW,284,0.0,1.0,61,0.00,,---,0.00,0.00,VWS V14.01,2013-05-13 02:45:00,
2013-05-12 21:50:00,42.7,29.4,30.10,WNW,284,0.0,1.0,59,0.00,,---,0.00,0.00,VWS V14.01,2013-05-13 02:50:00,
2013-05-12 21:55:00,42.5,29.6,30.09,WNW,284,0.0,1.0,60,0.00,,---,0.00,0.00,VWS V14.01,2013-05-13 02:55:00,
2013-05-12 22:00:00,41.6,29.6,30.10,WNW,284,0.0,0.0,62,0.00,,---,0.00,0.00,VWS V14.01,2013-05-13 03:00:00,
2013-05-12 22:05:00,40.7,29.5,30.10,WNW,284,1.0,1.0,64,0.00,,---,0.00,0.00,VWS V14.01,2013-05-13 03:05:00,
2013-05-12 22:10:00,40.5,28.9,30.10,WNW,284,0.0,1.0,63,0.00,,---,0.00,0.00,VWS V14.01,2013-05-13 03:10:00,
2013-05-12 22:15:00,40.3,29.1,30.10,WNW,284,0.0,2.0,64,0.00,,---,0.00,0.00,VWS V14.01,2013-05-13 03:15:00,
2013-05-12 22:20:00,40.1,28.9,30.10,WNW,284,0.0,2.0,64,0.00,,---,0.00,0.00,VWS V14.01,2013-05-13 03:20:00,
2013-05-12 22:25:00,40.1,29.7,30.10,WNW,284,0.0,2.0,66,0.00,,---,0.00,0.00,VWS V14.01,2013-05-13 03:25:00,
2013-05-12 22:30:00,40.0,29.9,30.10,WNW,284,0.0,2.0,67,0.00,,---,0.00,0.00,VWS V14.01,2013-05-13 03:30:00,
2013-05-12 22:35:00,39.8,30.1,30.10,WNW,284,0.0,2.0,68,0.00,,---,0.00,0.00,VWS V14.01,2013-05-13 03:35:00,
2013-05-12 22:40:00,39.4,30.1,30.10,WNW,284,0.0,2.0,69,0.00,,---,0.00,0.00,VWS V14.01,2013-05-13 03:40:00,
2013-05-12 22:45:00,39.1,30.2,30.10,WNW,284,0.0,2.0,70,0.00,,---,0.00,0.00,VWS V14.01,2013-05-13 03:45:00,
2013-05-12 22:50:00,38.4,30.5,30.10,WNW,284,0.0,2.0,73,0.00,,---,0.00,0.00,VWS V14.01,2013-05-13 03:50:00,
2013-05-12 22:55:00,37.8,30.6,30.10,WNW,284,0.0,2.0,75,0.00,,---,0.00,0.00,VWS V14.01,2013-05-13 03:55:00,
2013-05-12 23:00:00,37.5,30.6,30.10,WNW,284,0.0,0.0,76,0.00,,---,0.00,0.00,VWS V14.01,2013-05-13 04:00:00,
2013-05-12 23:01:00,37.6,30.7,30.10,WNW,284,0.0,0.0,76,0.00,,---,0.00,0.00,VWS V14.01,2013-05-13 04:01:00,
2013-05-12 23:06:00,37.5,30.3,30.10,WNW,284,0.0,0.0,75,0.00,,---,0.00,0.00,VWS V14.01,2013-05-13 04:06:00,
2013-05-12 23:11:00,37.4,30.5,30.10,WNW,284,0.0,0.0,76,0.00,,---,0.00,0.00,VWS V14.01,2013-05-13 04:11:00,
2013-05-12 23:16:00,37.3,30.4,30.10,WNW,284,0.0,0.0,76,0.00,,---,0.00,0.00,VWS V14.01,2013-05-13 04:16:00,
2013-05-12 23:21:00,37.2,30.7,30.10,WNW,284,0.0,0.0,77,0.00,,---,0.00,0.00,VWS V14.01,2013-05-13 04:21:00,
2013-05-12 23:26:00,36.9,30.7,30.10,WNW,284,0.0,0.0,78,0.00,,---,0.00,0.00,VWS V14.01,2013-05-13 04:26:00,
2013-05-12 23:31:00,36.4,30.8,30.10,WNW,284,0.0,0.0,80,0.00,,---,0.00,0.00,VWS V14.01,2013-05-13 04:31:00,
2013-05-12 23:36:00,36.1,30.5,30.10,WNW,284,0.0,0.0,80,0.00,,---,0.00,0.00,VWS V14.01,2013-05-13 04:36:00,
2013-05-12 23:41:00,36.0,30.8,30.10,WNW,284,0.0,0.0,81,0.00,,---,0.00,0.00,VWS V14.01,2013-05-13 04:41:00,
2013-05-12 23:46:00,35.7,30.8,30.10,WNW,284,0.0,0.0,82,0.00,,---,0.00,0.00,VWS V14.01,2013-05-13 04:46:00,
2013-05-12 23:51:00,35.8,30.9,30.10,WNW,284,0.0,0.0,82,0.00,,---,0.00,0.00,VWS V14.01,2013-05-13 04:51:00,
2013-05-12 23:56:00,35.7,30.8,30.10,WNW,284,0.0,0.0,82,0.00,,---,0.00,0.00,VWS V14.01,2013-05-13 04:56:00,